Temperature
25 25 25 24 24 23 23 23 23 22 22 22 21 20 18 17 16 15 15 14 13 12 11 10 9 9 8 7 7 6 6 6 6 6 6 6 6 6 6 6 6 6 7 7
25 24 24 23 23 23 22 22 22 22 22 22 20 19 18 17 16 15 14 13 12 11 10 10 9 8 8 7 7 6 6 6 6 6 6 6 6 5 5 5 5 6 6 6
25 24 24 24 24 23 23 23 22 22 22 21 20 18 17 16 15 14 13 12 11 11 10 9 9 8 7 7 6 6 6 6 6 6 6 5 5 5 5 5 5 5 5 6
25 24 23 24 24 23 22 22 22 22 21 21 19 17 16 15 14 13 12 11 11 10 10 9 9 8 7 7 6 6 6 6 6 5 5 5 5 5 5 5 4 4 5 5
24 24 25 23 22 22 22 22 22 21 21 19 19 17 18 15 14 13 12 11 10 10 9 9 8 8 7 6 6 6 6 6 5 5 5 5 5 5 5 4 4 4 4 4
24 23 23 24 23 21 21 21 22 21 20 19 18 18 18 15 13 12 11 10 10 9 9 9 8 7 6 6 6 6 6 5 5 5 5 5 5 5 5 4 4 4 4 4
24 23 24 24 22 21 21 22 21 20 19 18 18 17 15 14 12 11 11 10 9 9 9 8 8 7 6 6 6 5 5 5 5 5 5 5 5 5 5 4 4 4 4 4
23 23 24 23 22 22 22 21 20 19 18 17 16 15 14 13 12 11 10 10 9 9 9 8 7 7 6 6 6 5 5 5 5 5 5 5 5 5 5 4 4 4 4 4
24 24 23 22 22 22 21 20 19 18 18 16 15 15 14 13 12 11 10 10 9 9 8 8 7 7 6 6 6 5 5 5 5 5 5 5 5 5 5 5 4 4 4 4
23 24 23 22 21 21 20 19 18 17 16 16 15 14 13 12 11 10 10 9 9 8 8 8 7 7 6 6 6 5 5 5 5 5 5 5 5 5 5 5 4 4 4 4
23 23 23 22 21 21 20 18 17 17 16 15 14 13 13 12 11 10 9 9 8 8 7 7 7 7 6 6 6 6 6 5 5 6 6 5 5 5 5 5 4 4 4 4
24 24 23 23 22 21 20 18 17 16 16 15 14 13 12 11 10 9 9 8 8 7 7 7 7 6 6 6 6 6 6 6 6 6 6 6 6 6 6 5 5 5 5 5
23 23 23 23 21 20 19 18 17 16 15 14 13 12 11 11 10 9 9 8 7 7 7 6 6 6 6 6 6 6 6 6 6 6 6 6 6 6 6 6 5 5 5 5
22 21 21 21 21 20 19 18 17 16 15 14 13 12 11 10 10 9 8 7 7 6 6 6 6 6 6 6 6 6 6 6 6 6 7 7 7 7 7 6 6 6 5 5
21 20 20 21 20 19 18 17 17 16 15 14 13 12 11 10 9 8 8 7 7 6 6 6 6 6 6 6 6 6 6 6 6 6 7 7 7 7 7 7 6 6 6 5
22 20 19 20 19 19 18 17 17 16 15 14 13 12 11 10 9 8 7 7 6 6 5 5 5 6 6 6 6 6 6 6 6 7 7 7 7 7 7 7 7 6 6 6
21 20 19 19 19 18 18 18 17 16 15 14 12 11 10 9 9 8 7 7 6 5 5 5 5 5 6 6 6 6 6 7 7 7 7 8 7 7 7 7 7 6 6 6
20 20 20 19 19 19 18 17 16 15 14 13 12 11 10 9 8 8 7 7 6 6 5 4 5 5 6 6 6 6 6 7 7 7 7 7 7 7 7 7 7 6 6 6
20 19 19 19 18 18 18 17 16 15 13 12 11 10 10 9 8 8 7 7 6 6 5 6 6 5 5 6 6 6 6 7 7 7 7 7 7 7 7 7 7 7 7 7
18 18 18 18 17 17 17 16 15 14 13 12 11 10 9 9 8 8 7 6 6 5 5 5 5 5 5 6 6 6 6 6 7 7 7 7 7 7 7 7 7 7 7 7
17 17 17 17 17 16 16 15 15 14 13 12 11 10 9 9 8 8 7 7 6 6 6 5 4 4 5 5 6 6 6 6 6 7 7 7 8 7 7 7 7 7 7 7
16 16 16 17 16 16 16 15 15 14 13 12 11 10 10 9 9 8 7 7 6 6 6 4 4 4 5 5 5 5 6 6 6 7 7 7 8 8 8 8 8 7 7 7
15 15 15 15 15 16 15 15 15 14 13 12 12 11 10 10 9 8 8 7 6 6 6 4 4 4 5 5 5 5 6 6 6 6 7 7 8 8 8 8 8 8 8 8
14 14 14 14 14 14 14 15 14 14 13 12 11 11 10 10 9 8 8 7 7 7 5 4 4 4 5 5 5 5 5 6 6 6 7 7 8 8 8 8 8 8 8 8
14 14 14 14 14 14 14 14 14 13 13 12 11 11 10 10 9 8 8 7 7 6 5 4 4 4 4 4 4 5 5 5 6 6 6 7 7 8 8 8 9 9 9 9
13 13 14 13 13 13 14 14 13 13 12 12 11 10 10 9 8 8 7 7 6 6 5 4 4 4 4 4 4 4 5 5 6 6 7 7 7 8 8 8 9 9 9 9
13 13 13 13 13 13 13 13 12 12 12 12 11 10 10 9 8 7 7 6 6 5 5 4 4 3 3 3 3 4 4 5 6 6 7 7 7 8 8 8 9 9 9 10
Wind_Speed
3 2 3 4 3 3 3 5 9 12 14 13 10 10 12 14 16 16 16 16 17 17 17 17 17 17 17 17 17 17 17 18 18 18 18 19 19 18 18 18 18 18 18 18
4 3 5 7 7 6 5 6 10 13 13 7 7 10 13 15 16 16 16 17 18 18 18 18 17 17 16 17 17 17 17 18 18 19 19 19 19 19 19 18 18 18 18 18
6 2 8 8 7 7 5 7 10 12 12 11 12 14 15 15 15 15 16 18 18 18 17 17 17 16 16 16 17 17 17 18 18 18 19 19 20 19 19 19 18 18 18 18
7 5 8 3 4 3 6 10 10 11 13 12 13 13 14 11 11 15 17 18 18 17 18 17 16 16 16 16 16 17 17 17 18 18 20 20 20 19 19 17 16 16 16 17
7 11 11 3 5 3 6 11 7 9 11 11 12 14 9 3 10 15 16 16 16 17 17 17 16 16 16 16 16 17 17 17 18 19 19 20 20 18 16 15 15 15 15 15
9 11 11 1 7 2 4 6 2 6 10 11 12 12 10 12 14 15 16 15 16 16 17 16 15 15 16 16 17 17 17 18 18 18 19 19 19 17 15 13 13 13 13 13
12 12 8 6 8 4 6 8 6 7 9 10 11 11 14 16 15 15 16 16 16 16 16 15 15 15 15 16 16 16 17 18 18 18 18 18 16 15 13 12 12 11 11 11
7 7 4 10 7 4 7 5 6 7 8 9 11 12 13 14 15 16 16 17 16 16 16 15 14 14 15 16 16 16 16 17 18 17 16 14 15 14 12 11 11 10 9 8
6 7 1 9 8 5 5 7 7 7 8 8 11 12 13 14 14 15 16 16 16 16 17 16 14 14 15 16 15 15 16 16 16 17 15 14 13 13 11 9 8 7 6 5
9 10 8 9 11 10 9 9 8 7 7 9 11 12 13 13 14 15 16 16 16 16 17 17 16 15 15 15 15 15 16 16 15 14 14 13 11 10 9 8 7 6 5 4
12 12 10 11 12 12 10 9 9 8 7 8 10 12 13 13 14 15 16 15 15 16 16 17 17 16 15 14 14 15 15 14 14 13 13 12 11 9 8 7 5 6 6 5
11 8 8 8 7 7 9 10 9 9 8 8 9 11 12 12 13 14 16 16 16 16 17 17 17 16 15 14 14 14 13 13 11 11 10 10 10 8 2 3 3 4 5 6
13 11 10 9 7 7 8 8 8 8 8 8 8 9 11 12 13 14 16 16 16 16 17 16 16 16 15 15 15 14 14 13 11 11 10 10 9 9 7 1 4 2 1 2
12 10 11 12 11 9 9 8 7 7 7 6 7 8 10 11 13 14 15 15 15 16 16 15 15 16 16 16 15 15 14 13 11 10 10 9 9 9 8 7 3 1 3 3
12 14 14 10 10 10 9 8 8 8 7 7 6 7 9 11 13 14 14 14 14 15 15 15 16 17 17 16 15 15 13 10 10 10 10 9 8 8 7 7 4 2 1 4
10 11 14 13 13 12 11 10 10 8 7 6 6 7 8 10 12 13 13 13 14 15 15 15 16 17 17 16 15 13 11 13 11 10 10 8 7 7 7 6 4 2 1 1
11 12 14 16 16 14 13 11 9 7 6 5 5 6 7 9 11 12 13 13 12 12 12 13 15 17 17 15 14 11 11 11 11 10 8 8 7 6 6 5 4 3 2 3
12 13 12 13 14 13 12 10 9 7 6 5 4 5 6 9 11 12 13 13 12 12 11 13 16 18 16 15 14 11 10 10 9 8 8 7 7 6 5 4 4 3 1 2
10 11 11 11 10 9 9 9 8 7 6 5 5 5 6 7 9 10 11 12 12 12 14 16 18 16 16 16 16 10 10 10 9 8 7 7 6 5 4 3 3 2 1 1
9 8 9 10 11 10 9 9 8 7 7 7 6 6 6 6 7 9 9 9 8 9 13 16 16 14 15 15 17 10 10 10 10 9 8 7 6 6 5 4 3 3 1 0
11 8 9 10 11 11 10 10 10 9 8 8 8 7 6 5 6 7 8 8 8 10 13 13 11 12 14 15 14 10 10 10 9 8 8 7 6 5 5 4 3 2 2 1
14 10 9 10 11 11 11 11 11 10 10 9 9 7 6 5 5 5 6 5 7 9 10 9 10 13 18 17 10 10 10 10 9 8 7 7 6 5 4 4 3 3 3 1
14 12 10 10 11 11 12 12 12 11 11 11 10 9 7 4 4 5 6 5 7 9 9 8 12 17 20 12 9 9 10 10 9 9 8 7 6 5 5 4 4 4 4 3
15 14 11 10 10 11 13 13 12 11 11 10 10 9 7 5 4 3 3 2 3 7 8 7 10 15 14 8 9 9 9 9 9 9 9 8 7 6 5 4 3 3 4 4
16 15 13 11 10 11 13 12 12 11 11 9 9 9 8 5 3 2 2 4 4 5 7 6 7 11 10 9 9 9 9 9 9 9 9 8 7 6 5 4 3 3 3 4
17 16 14 12 11 12 11 11 10 10 9 9 8 8 7 5 4 3 2 2 3 4 6 7 8 8 8 9 9 9 9 9 9 8 9 8 8 7 6 5 3 2 2 3
18 16 13 13 12 11 11 10 11 10 10 10 9 9 8 7 5 3 2 1 3 4 5 6 7 7 8 9 9 9 9 8 9 9 9 8 7 7 7 7 5 3 2 1
Wind_Direction
358 323 287 285 267 271 313 334 321 323 317 322 329 319 316 316 318 318 318 319 320 318 317 315 315 315 312 311 312 311 310 309 308 309 308 305 302 300 298 294 287 281 274 265
256 245 270 269 256 249 273 302 312 311 316 337 318 309 312 318 321 319 319 320 319 318 317 316 316 313 312 311 312 311 308 307 308 306 304 302 301 298 296 293 290 284 276 268
299 266 277 270 234 230 266 306 310 308 320 326 310 315 318 318 317 319 320 319 317 317 316 316 314 313 311 311 310 308 305 304 305 305 303 303 301 298 296 293 291 287 281 272
297 286 282 36 117 221 282 301 303 296 304 311 310 313 303 299 309 318 317 316 315 315 315 315 316 314 312 309 307 305 304 305 307 309 307 304 301 297 295 293 290 286 282 276
287 291 297 159 179 231 295 304 305 302 307 309 315 308 310 12 319 316 315 314 312 311 313 314 313 314 312 309 306 305 305 308 310 310 307 304 301 300 299 294 291 286 283 276
275 293 299 14 136 138 284 289 333 300 304 311 316 312 334 344 327 321 318 315 314 312 311 311 315 316 311 308 307 306 309 309 309 307 305 305 304 303 300 295 291 286 282 275
275 283 286 123 142 183 287 339 344 309 303 305 311 308 315 320 320 319 318 316 314 312 311 315 317 315 308 306 305 308 309 307 307 306 307 306 307 307 303 298 294 288 284 276
274 279 290 139 164 240 310 322 304 301 299 302 305 307 311 315 316 318 319 319 318 314 314 317 319 315 309 307 308 308 307 306 308 309 309 310 310 309 307 303 298 293 289 278
271 286 43 186 216 245 279 284 291 292 298 304 305 310 315 316 318 320 321 320 318 315 314 317 321 319 311 310 311 309 306 305 307 310 311 311 310 310 310 308 304 300 294 277
266 271 258 232 235 248 254 263 275 281 289 299 305 311 316 318 320 321 322 321 320 318 316 318 322 320 313 312 313 310 307 307 308 310 312 316 314 312 315 315 313 308 301 284
261 273 271 245 237 244 247 246 254 262 274 292 303 309 315 316 318 321 321 321 319 316 316 318 321 319 318 319 319 314 310 308 308 309 313 316 316 317 321 331 334 311 306 294
268 279 254 256 225 225 232 236 243 255 270 285 297 305 311 314 317 319 320 320 318 319 320 320 321 320 321 323 321 315 312 310 309 310 312 315 316 319 258 271 319 298 294 302
262 276 262 251 224 215 224 230 234 242 261 282 296 303 307 311 315 319 320 321 322 321 320 320 320 321 325 327 321 315 311 308 306 306 310 315 317 319 326 260 174 153 9 318
252 250 249 240 233 221 220 221 227 238 253 273 291 300 305 311 315 320 323 325 323 320 320 322 324 325 329 327 321 317 313 306 300 300 306 312 315 319 323 331 342 118 128 87
244 231 239 246 226 209 206 211 223 238 252 267 282 294 305 313 318 321 324 325 324 322 325 328 328 329 330 327 323 319 315 310 307 304 305 312 316 320 325 330 343 16 96 124
258 238 237 232 219 211 207 212 227 244 258 272 284 295 308 314 316 319 326 330 329 326 327 329 330 330 328 325 324 320 315 310 307 304 307 319 325 326 332 339 350 8 10 82
254 240 229 225 221 217 215 216 226 243 258 266 278 296 308 315 320 326 332 336 331 323 325 332 331 329 326 326 325 320 317 316 309 301 314 330 333 332 337 344 352 358 21 54
262 256 247 232 225 217 212 212 217 228 243 255 266 284 305 318 324 328 331 334 332 330 338 340 335 328 326 331 331 324 322 320 321 320 327 334 336 333 341 346 348 349 348 145
288 267 252 228 213 202 197 198 203 212 219 225 242 269 295 311 321 325 329 331 332 335 341 339 331 327 333 336 335 326 328 328 327 325 326 328 324 335 351 352 348 346 333 272
309 275 246 220 201 192 186 184 187 195 204 211 227 250 277 304 319 323 327 327 339 341 333 330 328 333 336 337 335 330 333 335 335 334 333 337 346 345 354 4 2 351 352 245
331 294 250 226 211 201 194 187 189 195 200 207 222 240 264 289 308 319 324 328 345 347 334 322 328 340 339 333 323 334 340 339 339 340 341 343 348 353 1 14 20 9 24 24
342 319 278 246 225 213 201 194 194 199 200 206 217 228 244 268 295 310 318 328 335 352 336 330 342 343 336 328 334 343 343 343 342 343 346 346 351 359 4 16 35 38 39 37
339 328 301 269 246 231 215 206 201 201 204 208 213 219 233 264 296 310 322 348 339 345 332 338 344 336 331 332 341 347 347 347 344 343 344 343 345 353 7 20 35 42 41 46
328 324 311 286 264 248 233 222 211 206 206 210 214 211 217 237 255 267 322 342 336 336 331 345 337 330 327 339 346 349 349 347 346 342 340 341 343 350 4 16 35 64 64 57
317 315 307 290 269 253 241 228 216 210 208 207 208 202 207 222 256 293 317 332 1 335 335 346 336 327 337 349 349 350 349 349 346 340 339 341 343 345 349 3 20 43 60 61
305 300 297 286 272 263 253 236 222 208 201 201 204 200 200 196 205 224 256 320 346 342 342 348 348 345 351 351 352 351 350 348 348 347 344 340 338 338 340 343 344 4 31 38
291 289 285 282 276 265 256 241 228 217 203 197 196 193 192 188 191 201 217 335 5 8 4 1 358 356 355 355 356 355 354 354 352 349 345 341 339 336 331 328 326 325 328 348
Height
1509 1508 1508 1510 1512 1513 1513 1514 1515 1513 1511 1508 1509 1513 1514 1514 1512 1510 1507 1505 1501 1498 1493 1489 1484 1479 1474 1469 1464 1459 1455 1450 1445 1441 1436 1432 1428 1424 1420 1417 1414 1412 1411 1410
1511 1510 1510 1512 1512 1513 1514 1513 1512 1511 1508 1507 1511 1513 1512 1511 1510 1507 1505 1501 1498 1493 1489 1484 1479 1474 1469 1464 1460 1455 1450 1445 1440 1435 1430 1425 1421 1417 1413 1409 1406 1403 1401 1400
1508 1508 1511 1510 1506 1510 1511 1509 1511 1510 1508 1508 1509 1510 1510 1509 1507 1505 1502 1498 1494 1489 1485 1480 1475 1470 1465 1460 1455 1450 1446 1441 1435 1430 1425 1419 1414 1409 1405 1401 1397 1394 1392 1390
1506 1513 1521 1507 1504 1508 1510 1508 1506 1506 1506 1507 1509 1509 1507 1506 1505 1502 1499 1495 1490 1485 1481 1476 1471 1466 1461 1456 1451 1446 1441 1436 1430 1425 1419 1413 1407 1402 1397 1393 1389 1385 1382 1381
1507 1507 1502 1503 1506 1507 1508 1506 1503 1505 1505 1506 1505 1505 1499 1502 1502 1499 1495 1491 1487 1482 1477 1472 1467 1461 1456 1451 1446 1441 1436 1430 1425 1419 1412 1406 1400 1395 1390 1385 1381 1377 1374 1372
1505 1513 1513 1500 1502 1507 1509 1504 1502 1504 1504 1504 1503 1499 1497 1499 1498 1495 1491 1487 1482 1477 1472 1467 1462 1457 1451 1446 1441 1436 1430 1425 1419 1412 1406 1400 1394 1388 1383 1379 1374 1371 1367 1365
1502 1504 1495 1496 1503 1507 1507 1503 1502 1502 1502 1502 1501 1501 1499 1497 1494 1491 1486 1482 1477 1473 1468 1463 1458 1452 1446 1441 1436 1430 1424 1419 1413 1407 1401 1395 1388 1383 1378 1373 1369 1365 1362 1360
1501 1505 1499 1497 1501 1501 1500 1500 1500 1500 1500 1500 1499 1498 1496 1494 1490 1486 1482 1477 1473 1468 1463 1459 1453 1447 1441 1436 1430 1425 1419 1413 1407 1402 1396 1390 1384 1378 1374 1369 1364 1361 1358 1356
1493 1495 1494 1495 1495 1496 1497 1497 1497 1497 1497 1497 1496 1494 1492 1490 1486 1482 1478 1473 1468 1464 1458 1454 1449 1443 1437 1431 1425 1419 1413 1408 1402 1397 1391 1386 1380 1375 1370 1366 1362 1358 1356 1354
1492 1487 1490 1492 1492 1493 1494 1494 1494 1494 1494 1494 1493 1491 1489 1486 1482 1478 1474 1469 1464 1459 1454 1448 1443 1438 1432 1426 1420 1414 1408 1403 1398 1393 1387 1382 1377 1372 1368 1363 1360 1357 1354 1353
1489 1486 1486 1487 1488 1489 1489 1490 1490 1490 1491 1490 1489 1487 1485 1482 1479 1475 1470 1465 1460 1455 1450 1444 1439 1433 1428 1422 1416 1410 1404 1399 1394 1389 1384 1379 1374 1370 1366 1362 1358 1355 1353 1352
1482 1480 1482 1481 1483 1484 1485 1486 1486 1487 1487 1487 1486 1484 1482 1479 1475 1471 1467 1462 1456 1451 1446 1440 1434 1429 1424 1418 1412 1406 1400 1395 1390 1386 1381 1377 1372 1368 1364 1360 1357 1354 1352 1351
1479 1478 1478 1478 1479 1480 1481 1481 1482 1483 1483 1483 1482 1480 1478 1475 1472 1468 1463 1458 1453 1447 1441 1436 1430 1425 1420 1414 1408 1402 1396 1391 1387 1383 1379 1375 1370 1366 1363 1359 1356 1353 1351 1351
1475 1475 1474 1474 1475 1476 1476 1477 1478 1479 1479 1479 1478 1476 1475 1472 1468 1464 1459 1454 1448 1443 1438 1432 1427 1421 1416 1410 1404 1399 1393 1388 1384 1381 1377 1373 1369 1365 1362 1359 1356 1354 1352 1350
1468 1468 1468 1469 1470 1471 1472 1473 1474 1475 1475 1475 1474 1473 1471 1468 1464 1460 1455 1450 1445 1439 1434 1429 1423 1418 1412 1406 1401 1395 1391 1386 1382 1378 1375 1371 1368 1364 1361 1358 1355 1353 1352 1351
1462 1462 1462 1463 1464 1466 1467 1468 1470 1471 1471 1471 1470 1469 1467 1464 1461 1456 1452 1447 1441 1436 1431 1426 1420 1415 1409 1404 1398 1393 1388 1384 1380 1376 1373 1370 1367 1363 1360 1357 1355 1354 1352 1352
1457 1456 1456 1456 1458 1460 1462 1464 1465 1467 1467 1467 1466 1465 1463 1460 1457 1453 1448 1443 1438 1433 1429 1424 1418 1412 1407 1402 1397 1392 1387 1382 1378 1375 1373 1370 1366 1363 1360 1357 1355 1354 1353 1352
1452 1452 1452 1451 1453 1455 1457 1459 1461 1462 1463 1463 1462 1461 1459 1456 1453 1449 1444 1439 1435 1431 1427 1421 1415 1409 1405 1400 1395 1390 1386 1382 1378 1375 1372 1369 1366 1363 1360 1358 1356 1354 1353 1352
1448 1447 1447 1448 1449 1451 1453 1455 1456 1457 1458 1458 1457 1456 1455 1452 1449 1445 1441 1436 1432 1428 1423 1418 1412 1407 1403 1398 1394 1389 1385 1381 1378 1375 1372 1369 1366 1364 1361 1359 1356 1355 1353 1352
1444 1443 1444 1445 1446 1447 1448 1450 1451 1452 1453 1453 1452 1452 1451 1449 1445 1442 1438 1435 1431 1426 1420 1415 1410 1406 1401 1397 1393 1389 1385 1381 1378 1375 1372 1370 1367 1364 1362 1360 1357 1356 1354 1353
1443 1442 1441 1442 1443 1444 1445 1445 1446 1447 1448 1448 1448 1447 1446 1444 1442 1439 1435 1433 1428 1423 1418 1413 1409 1405 1400 1396 1392 1388 1385 1381 1378 1375 1373 1370 1368 1366 1364 1361 1359 1357 1356 1354
1442 1440 1440 1440 1440 1440 1440 1440 1441 1442 1443 1443 1443 1443 1442 1441 1439 1436 1433 1430 1425 1421 1416 1413 1409 1404 1399 1395 1392 1388 1385 1381 1379 1376 1374 1372 1369 1368 1366 1364 1362 1360 1358 1357
1442 1439 1437 1436 1436 1436 1436 1436 1436 1436 1437 1437 1437 1438 1438 1437 1435 1433 1431 1427 1423 1418 1414 1412 1407 1403 1399 1395 1392 1388 1385 1381 1379 1376 1374 1373 1371 1370 1368 1366 1365 1363 1362 1360
1440 1438 1434 1432 1431 1431 1431 1431 1431 1431 1431 1432 1433 1432 1432 1432 1432 1430 1427 1423 1419 1416 1413 1410 1406 1402 1398 1395 1392 1388 1385 1381 1379 1377 1375 1374 1372 1371 1370 1369 1368 1367 1366 1364
1437 1434 1431 1428 1426 1425 1424 1425 1425 1425 1425 1426 1427 1427 1427 1427 1427 1426 1423 1420 1417 1414 1411 1409 1405 1402 1399 1395 1391 1388 1385 1382 1379 1376 1375 1374 1373 1372 1372 1371 1371 1370 1370 1369
1432 1428 1426 1423 1420 1419 1418 1418 1418 1417 1418 1420 1421 1421 1422 1422 1422 1421 1419 1417 1415 1412 1410 1407 1405 1402 1398 1395 1391 1388 1384 1381 1379 1377 1375 1374 1373 1373 1372 1373 1373 1373 1373 1372
1424 1421 1418 1415 1413 1412 1411 1410 1410 1410 1411 1412 1413 1415 1416 1417 1417 1417 1416 1415 1413 1411 1409 1407 1404 1401 1398 1395 1391 1387 1384 1381 1378 1376 1374 1373 1372 1372 1373 1373 1373 1374 1375 1375